Weather Roundup
Issued by NWS Springfield, MO

Home | Current Version | Previous Version | Text Only | Print | Product List | Glossary On
Versions: 1 2 3 4 5 6 7 8 9 10 11 12 13 14 15 16 17 18 19 20 21 22 23 24 25 26 27 28 29 30 31 32 33 34 35 36 37 38 39 40 41 42 43 44 45 46 47 48 49 50
000
NZUS99 KSGF 282107
HRRSGF

HOURLY WEATHER
NATIONAL WEATHER SERVICE SPRINGFIELD MO
400 PM CDT WED JUN 28 2017

......SGF CWA......

CITY           SKY/WX    TMP DP  RH WIND       PRES   REMARKS
SPRINGFIELD    SUNNY     85  67  54 S20G30    29.90F
JOPLIN         MOSUNNY   88  71  57 S18G29    29.87S HX  94
WEST PLAINS    SUNNY     85  62  46 S12       29.98F
ROLLA          SUNNY     86  64  47 S22G30    29.90F
OSAGE BEACH    SUNNY     86  68  54 S17G24    29.88F
BRANSON        PTSUNNY   84  66  54 SE10G18   29.95F

......SURROUNDING SGF CWA......

CITY           SKY/WX    TMP DP  RH WIND       PRES   REMARKS
CHANUTE        MOSUNNY   91  69  48 S25G36    29.82F HX  96
PARSONS        SUNNY     89  69  51 S12G22    29.84F HX  93
COFFEYVILLE    PTSUNNY   89  70  53 S22G29    29.83S HX  94
EMPORIA        SUNNY     89  69  51 S23G35    29.77F HX  93
GROVE OK       MOSUNNY   88  70  55 S14G21    29.88S HX  92
ROGERS AR      MOSUNNY   86  65  49 S18G25    29.93S
SILOAM SPRINGS MOSUNNY   88  64  45 S15G21    29.91S
HARRISON AR    SUNNY     85  64  49 S17G23    29.96F
NEAR YELLVILLE PTSUNNY   84  61  45 S7        29.93F

......KANSAS AND MISSOURI......

CITY           SKY/WX    TMP DP  RH WIND       PRES   REMARKS
KANSAS CTY INT MOSUNNY   88  72  58 SW17G28   29.77S HX  94
DOWNTOWN KC    MOSUNNY   90  70  51 SW22G32   29.77S HX  95
COLUMBIA       SUNNY     87  67  51 S20G30    29.85F HX  90
SEDALIA        MOSUNNY   87  73  62 S17G23    29.85F HX  94
ST JOSEPH      PTSUNNY   87  73  62 S16G32    29.73S HX  94
ST LOUIS       PTSUNNY   89  62  40 S18G26    29.89F
SPIRIT OF STL  MOSUNNY   87  64  46 S16G26    29.86F
KIRKSVILLE     PTSUNNY   87  69  54 S21G29    29.81S HX  91
WICHITA        MOSUNNY   94  65  38 S24G36    29.75S HX  96
TOPEKA         MOSUNNY   91  70  49 SW21G32   29.74R HX  96
OLATHE         PTSUNNY   87  70  56 S23G31    29.79F HX  92

......TENNESSEE......

CITY           SKY/WX    TMP DP  RH WIND       PRES   REMARKS
MEMPHIS        MOSUNNY   89  63  41 SE12G20   30.00F HX  90
NASHVILLE      PTSUNNY   85  56  37 S12       30.06F

......ARKANSAS.......

CITY           SKY/WX    TMP DP  RH WIND       PRES   REMARKS
FAYETTEVILLE   SUNNY     83  67  58 S14G21    29.92F
FT SMITH       MOSUNNY   90  68  48 S10G18    29.88F HX  94
LITTLE ROCK    MOSUNNY   87  69  54 S10       29.96F HX  91

......OKLAHOMA.......

CITY           SKY/WX    TMP DP  RH WIND       PRES   REMARKS
TULSA          MOSUNNY   92  70  48 S18G28    29.80F HX  97
PONCA CITY     MOSUNNY   94  65  38 S16G31    29.77F HX  96
MCALESTER      MOSUNNY   91  69  48 S13G23    29.88F HX  96
OKLAHOMA CITY  MOSUNNY   90  64  42 S20G35    29.82F HX  91

......IOWA............

CITY           SKY/WX    TMP DP  RH WIND       PRES   REMARKS
DES MOINES     PTSUNNY   84  70  62 S18G26    29.68F
QUAD CITIES    CLOUDY    81  69  67 S9G23     29.76F

......ILLINOIS........

CITY           SKY/WX    TMP DP  RH WIND       PRES   REMARKS
QUINCY         MOSUNNY   87  67  51 S15G26    29.83F HX  90
CHICAGO        CLOUDY    79  61  53 S20       29.83F



USA.gov is the U.S. government's official web portal to all federal, state and local government web resources and services.